| time (UTC) | temp F | wind direction | speed knots | gust knots | rain 1hr in | rain 24hr in | rain mn in | humidity % | barometer mb |
| 20260508071614 | 70 | 169 | 4.3 | 8.7 | 0.00 | 0.00 | 0.00 | 45 | 1009.9 |
| 20260508071112 | 70 | 225 | 3.5 | 7.8 | 0.00 | 0.00 | 0.00 | 44 | 1009.8 |
| 20260508070622 | 70 | 158 | 3.5 | 8.7 | 0.00 | 0.00 | 0.00 | 45 | 1009.7 |
| 20260508070127 | 69 | 171 | 3.5 | 8.7 | 0.00 | 0.00 | 0.00 | 47 | 1009.7 |
| 20260508065637 | 68 | 162 | 1.7 | 12.2 | 0.00 | 0.00 | 0.00 | 49 | 1009.7 |
| 20260508065120 | 68 | 108 | 6.1 | 15.6 | 0.00 | 0.00 | 0.00 | 49 | 1009.7 |
| 20260508064630 | 68 | 131 | 6.1 | 18.2 | 0.00 | 0.00 | 0.00 | 48 | 1009.7 |
| 20260508063632 | 69 | 79 | 5.2 | 13.0 | 0.00 | 0.00 | 0.00 | 47 | 1009.5 |
| 20260508063114 | 69 | 111 | 6.1 | 15.6 | 0.00 | 0.00 | 0.00 | 47 | 1009.7 |
| 20260508062623 | 69 | 79 | 7.0 | 15.6 | 0.00 | 0.00 | 0.00 | 46 | 1009.6 |
| 20260508062133 | 70 | 124 | 6.1 | 14.8 | 0.00 | 0.00 | 0.00 | 46 | 1009.7 |
| 20260508061116 | 70 | 157 | 7.8 | 16.5 | 0.00 | 0.00 | 0.00 | 47 | 1009.6 |
| 20260508060647 | 71 | 176 | 4.3 | 12.2 | 0.00 | 0.00 | 0.00 | 47 | 1009.5 |
| 20260508060134 | 71 | 129 | 4.3 | 12.2 | 0.00 | 0.00 | 0.00 | 46 | 1009.3 |
| 20260508055614 | 71 | 168 | 5.2 | 14.8 | 0.00 | 0.00 | 0.00 | 46 | 1009.4 |
| 20260508055124 | 71 | 150 | 7.0 | 14.8 | 0.00 | 0.00 | 0.00 | 49 | 1009.5 |
| 20260508054635 | 71 | 122 | 3.5 | 12.2 | 0.00 | 0.00 | 0.00 | 48 | 1009.5 |
| 20260508054115 | 71 | 94 | 5.2 | 12.2 | 0.00 | 0.00 | 0.00 | 48 | 1009.6 |
| 20260508053620 | 71 | 128 | 5.2 | 13.0 | 0.00 | 0.00 | 0.00 | 47 | 1009.4 |
| 20260508053129 | 71 | 119 | 6.1 | 15.6 | 0.00 | 0.00 | 0.00 | 48 | 1009.5 |
| 20260508052658 | 71 | 142 | 5.2 | 15.6 | 0.00 | 0.00 | 0.00 | 46 | 1009.5 |
| 20260508052120 | 72 | 140 | 4.3 | 12.2 | 0.00 | 0.00 | 0.00 | 43 | 1009.4 |
| 20260508051630 | 72 | 179 | 3.5 | 12.2 | 0.00 | 0.00 | 0.00 | 44 | 1009.4 |
| 20260508051112 | 71 | 134 | 5.2 | 10.4 | 0.00 | 0.00 | 0.00 | 45 | 1009.5 |
| 20260508050622 | 71 | 170 | 3.5 | 10.4 | 0.00 | 0.00 | 0.00 | 48 | 1009.5 |
| 20260508050130 | 71 | 131 | 4.3 | 10.4 | 0.00 | 0.00 | 0.00 | 49 | 1009.5 |
| 20260508045635 | 71 | 193 | 3.5 | 11.3 | 0.00 | 0.00 | 0.00 | 51 | 1009.5 |
| 20260508045118 | 72 | 122 | 3.5 | 11.3 | 0.00 | 0.00 | 0.00 | 50 | 1009.5 |
| 20260508044721 | 72 | 195 | 6.1 | 14.8 | 0.00 | 0.00 | 0.00 | 49 | 1009.5 |
| 20260508044138 | 71 | 115 | 4.3 | 14.8 | 0.00 | 0.00 | 0.00 | 51 | 1009.6 |
| 20260508043626 | 72 | 243 | 5.2 | 14.8 | 0.00 | 0.00 | 0.00 | 51 | 1009.6 |
| 20260508043135 | 72 | 147 | 6.1 | 14.8 | 0.00 | 0.00 | 0.00 | 49 | 1009.6 |
| 20260508042617 | 72 | 160 | 3.5 | 10.4 | 0.00 | 0.00 | 0.00 | 52 | 1009.6 |
| 20260508042121 | 71 | 147 | 3.5 | 13.0 | 0.00 | 0.00 | 0.00 | 54 | 1009.4 |
| 20260508041630 | 72 | 165 | 7.0 | 13.0 | 0.00 | 0.00 | 0.00 | 52 | 1009.5 |
| 20260508041113 | 72 | 164 | 4.3 | 11.3 | 0.00 | 0.00 | 0.00 | 53 | 1009.5 |
| 20260508040622 | 71 | 167 | 5.2 | 11.3 | 0.00 | 0.00 | 0.00 | 54 | 1009.6 |
| 20260508040131 | 71 | 158 | 5.2 | 13.9 | 0.00 | 0.00 | 0.00 | 53 | 1009.4 |
| 20260508035614 | 72 | 149 | 7.0 | 13.9 | 0.00 | 0.00 | 0.00 | 52 | 1009.4 |
| 20260508035123 | 73 | 153 | 6.1 | 9.6 | 0.00 | 0.00 | 0.00 | 53 | 1009.2 |
| 20260508034628 | 72 | 127 | 3.5 | 10.4 | 0.00 | 0.00 | 0.00 | 54 | 1009.2 |
| 20260508033651 | 72 | 122 | 5.2 | 11.3 | 0.00 | 0.00 | 0.00 | 56 | 1009.2 |
| 20260508033133 | 71 | 178 | 5.2 | 11.3 | 0.00 | 0.00 | 0.00 | 56 | 1009.0 |
| 20260508032620 | 71 | 203 | 3.5 | 8.7 | 0.00 | 0.00 | 0.00 | 59 | 1009.0 |
| 20260508032129 | 71 | 136 | 3.5 | 12.2 | 0.00 | 0.00 | 0.00 | 58 | 1009.1 |
| 20260508031633 | 71 | 140 | 4.3 | 13.0 | 0.00 | 0.00 | 0.00 | 57 | 1009.0 |
| 20260508031111 | 70 | 157 | 5.2 | 13.9 | 0.00 | 0.00 | 0.00 | 59 | 1009.0 |
| 20260508030621 | 70 | 130 | 3.5 | 14.8 | 0.00 | 0.00 | 0.00 | 59 | 1008.9 |
| 20260508030147 | 70 | 120 | 5.2 | 14.8 | 0.00 | 0.00 | 0.00 | 59 | 1009.1 |
| 20260508025635 | 71 | 192 | 5.2 | 14.8 | 0.00 | 0.00 | 0.00 | 60 | 1009.0 |
| 20260508025118 | 71 | 214 | 3.5 | 14.8 | 0.00 | 0.00 | 0.00 | 59 | 1009.0 |
| 20260508024628 | 70 | 161 | 7.0 | 14.8 | 0.00 | 0.00 | 0.00 | 59 | 1009.1 |
| 20260508024158 | 70 | 217 | 4.3 | 13.9 | 0.00 | 0.00 | 0.00 | 62 | 1008.9 |
| 20260508023617 | 70 | 139 | 4.3 | 15.6 | 0.00 | 0.00 | 0.00 | 64 | 1009.0 |
| 20260508023127 | 69 | 70 | 6.1 | 17.4 | 0.00 | 0.00 | 0.00 | 65 | 1009.1 |
| 20260508022632 | 69 | 196 | 6.1 | 17.4 | 0.00 | 0.00 | 0.00 | 66 | 1009.1 |
| 20260508022114 | 70 | 115 | 6.1 | 16.5 | 0.00 | 0.00 | 0.00 | 66 | 1009.1 |
| 20260508021624 | 69 | 160 | 6.1 | 18.2 | 0.00 | 0.00 | 0.00 | 69 | 1009.2 |
| 20260508021134 | 69 | 78 | 5.2 | 15.6 | 0.00 | 0.00 | 0.00 | 68 | 1009.2 |
| 20260508020619 | 69 | 157 | 6.1 | 11.3 | 0.00 | 0.00 | 0.00 | 67 | 1009.2 |
| 20260508020128 | 69 | 172 | 4.3 | 14.8 | 0.00 | 0.00 | 0.00 | 68 | 1009.3 |
| 20260508015611 | 68 | 116 | 7.0 | 14.8 | 0.00 | 0.00 | 0.00 | 68 | 1009.1 |
| 20260508015121 | 69 | 150 | 3.5 | 20.0 | 0.00 | 0.00 | 0.00 | 68 | 1009.3 |
| 20260508014632 | 69 | 177 | 7.0 | 14.8 | 0.00 | 0.00 | 0.00 | 67 | 1009.1 |
| 20260508014115 | 69 | 269 | 5.2 | 19.1 | 0.00 | 0.00 | 0.00 | 67 | 1009.0 |
| 20260508013645 | 69 | 109 | 7.8 | 19.1 | 0.00 | 0.00 | 0.00 | 67 | 1009.0 |
| 20260508013132 | 68 | 133 | 7.0 | 18.2 | 0.00 | 0.00 | 0.00 | 66 | 1009.0 |
| 20260508012636 | 68 | 126 | 7.8 | 15.6 | 0.00 | 0.00 | 0.00 | 67 | 1009.0 |
| 20260508012145 | 68 | 127 | 5.2 | 13.0 | 0.00 | 0.00 | 0.00 | 69 | 1009.0 |
| 20260508011654 | 67 | 237 | 4.3 | 12.2 | 0.00 | 0.00 | 0.00 | 71 | 1009.0 |
| 20260508011115 | 66 | 113 | 6.1 | 13.0 | 0.00 | 0.00 | 0.00 | 73 | 1008.9 |
| 20260508010621 | 65 | 163 | 5.2 | 13.0 | 0.00 | 0.00 | 0.00 | 75 | 1009.0 |
| 20260508010131 | 65 | 82 | 4.3 | 11.3 | 0.00 | 0.00 | 0.00 | 75 | 1009.1 |
| 20260508005613 | 65 | 136 | 3.5 | 11.3 | 0.00 | 0.00 | 0.00 | 75 | 1009.1 |
| 20260508005121 | 65 | 143 | 4.3 | 13.9 | 0.00 | 0.00 | 0.00 | 75 | 1009.1 |
| 20260508004630 | 66 | 172 | 3.5 | 13.9 | 0.00 | 0.00 | 0.00 | 74 | 1009.2 |
| 20260508004134 | 66 | 149 | 3.5 | 16.5 | 0.00 | 0.00 | 0.00 | 74 | 1008.9 |
| 20260508003712 | 66 | 122 | 5.2 | 16.5 | 0.00 | 0.00 | 0.00 | 74 | 1008.9 |
| 20260508003131 | 66 | 150 | 6.1 | 11.3 | 0.00 | 0.00 | 0.00 | 73 | 1008.8 |
| 20260508002634 | 66 | 108 | 4.3 | 8.7 | 0.00 | 0.00 | 0.00 | 73 | 1008.8 |
| 20260508002122 | 66 | 139 | 4.3 | 10.4 | 0.00 | 0.00 | 0.00 | 73 | 1008.8 |
| 20260508001632 | 65 | 141 | 3.5 | 11.3 | 0.00 | 0.00 | 0.00 | 73 | 1008.9 |
| 20260508001115 | 65 | 124 | 4.3 | 11.3 | 0.00 | 0.00 | 0.00 | 72 | 1008.9 |
| 20260508000626 | 65 | 173 | 3.5 | 8.7 | 0.00 | 0.00 | 0.00 | 72 | 1008.9 |
| 20260508000135 | 65 | 118 | 0.9 | 7.8 | 0.00 | 0.00 | 0.00 | 71 | 1008.9 |
| 20260507235617 | 65 | 134 | 0.9 | 9.6 | 0.00 | 0.00 | 0.00 | 70 | 1008.8 |
| 20260507235122 | 66 | 148 | 4.3 | 9.6 | 0.00 | 0.00 | 0.00 | 69 | 1008.8 |
| 20260507234633 | 66 | 228 | 3.5 | 13.0 | 0.00 | 0.00 | 0.00 | 69 | 1008.7 |
| 20260507234115 | 66 | 125 | 5.2 | 13.0 | 0.00 | 0.00 | 0.00 | 68 | 1008.8 |
| 20260507233624 | 66 | 113 | 4.3 | 10.4 | 0.00 | 0.00 | 0.00 | 67 | 1008.8 |
| 20260507233133 | 66 | 205 | 5.2 | 8.7 | 0.00 | 0.00 | 0.00 | 67 | 1008.7 |
| 20260507232615 | 66 | 129 | 2.6 | 13.9 | 0.00 | 0.00 | 0.00 | 66 | 1008.8 |
| 20260507232145 | 66 | 127 | 2.6 | 10.4 | 0.00 | 0.00 | 0.00 | 65 | 1008.7 |
| 20260507231612 | 66 | 138 | 3.5 | 11.3 | 0.00 | 0.00 | 0.00 | 66 | 1008.7 |
| 20260507231117 | 66 | 174 | 2.6 | 10.4 | 0.00 | 0.00 | 0.00 | 68 | 1008.7 |
| 20260507230628 | 67 | 125 | 1.7 | 12.2 | 0.00 | 0.00 | 0.00 | 71 | 1008.7 |
| 20260507230137 | 67 | 136 | 5.2 | 12.2 | 0.00 | 0.00 | 0.00 | 72 | 1008.6 |
| 20260507225641 | 67 | 120 | 1.7 | 7.8 | 0.00 | 0.00 | 0.00 | 74 | 1008.6 |
| 20260507225130 | 66 | 118 | 4.3 | 7.8 | 0.00 | 0.00 | 0.00 | 75 | 1008.5 |
| 20260507224613 | 66 | 117 | 2.6 | 7.8 | 0.00 | 0.00 | 0.00 | 77 | 1008.5 |
| 20260507224112 | 66 | 178 | 4.3 | 7.0 | 0.00 | 0.00 | 0.00 | 77 | 1008.5 |
| 20260507223639 | 66 | 108 | 4.3 | 7.0 | 0.00 | 0.00 | 0.00 | 78 | 1008.2 |
| 20260507223147 | 66 | 158 | 2.6 | 5.2 | 0.00 | 0.00 | 0.00 | 78 | 1008.2 |
| 20260507222636 | 66 | 117 | 1.7 | 6.1 | 0.00 | 0.00 | 0.00 | 78 | 1008.2 |
| 20260507222118 | 66 | 137 | 2.6 | 7.8 | 0.00 | 0.00 | 0.00 | 78 | 1008.1 |
| 20260507221627 | 65 | 141 | 1.7 | 7.0 | 0.00 | 0.00 | 0.00 | 78 | 1008.2 |
| 20260507221136 | 65 | 147 | 2.6 | 7.0 | 0.00 | 0.00 | 0.00 | 79 | 1008.0 |
| 20260507220617 | 66 | 131 | 0.9 | 6.1 | 0.00 | 0.00 | 0.00 | 79 | 1008.0 |
| 20260507220126 | 66 | 153 | 1.7 | 7.0 | 0.00 | 0.00 | 0.00 | 79 | 1008.1 |
| 20260507215632 | 66 | 133 | 2.6 | 7.0 | 0.00 | 0.00 | 0.00 | 79 | 1008.2 |
| 20260507215115 | 66 | 125 | 1.7 | 9.6 | 0.00 | 0.00 | 0.00 | 79 | 1008.3 |
| 20260507214625 | 66 | 204 | 0.9 | 10.4 | 0.00 | 0.00 | 0.00 | 79 | 1008.4 |
| 20260507214126 | 66 | 143 | 3.5 | 10.4 | 0.00 | 0.00 | 0.00 | 79 | 1008.5 |
| 20260507213636 | 66 | 158 | 2.6 | 9.6 | 0.00 | 0.00 | 0.00 | 79 | 1008.5 |
| 20260507213117 | 66 | 187 | 2.6 | 8.7 | 0.00 | 0.00 | 0.00 | 78 | 1008.4 |
| 20260507212626 | 66 | 95 | 3.5 | 10.4 | 0.00 | 0.00 | 0.00 | 78 | 1008.4 |
| 20260507212135 | 66 | 124 | 4.3 | 10.4 | 0.00 | 0.00 | 0.00 | 78 | 1008.4 |
| 20260507211620 | 66 | 138 | 2.6 | 7.0 | 0.00 | 0.00 | 0.00 | 78 | 1008.2 |
| 20260507211130 | 66 | 142 | 1.7 | 6.1 | 0.00 | 0.00 | 0.00 | 78 | 1008.1 |
| 20260507210634 | 66 | 207 | 2.6 | 6.1 | 0.00 | 0.00 | 0.00 | 78 | 1008.2 |
| 20260507210123 | 66 | 155 | 0.9 | 5.2 | 0.00 | 0.00 | 0.00 | 78 | 1008.2 |
| 20260507205654 | 66 | 181 | 1.7 | 7.0 | 0.00 | 0.00 | 0.00 | 78 | 1008.1 |
| 20260507205115 | 66 | 138 | 1.7 | 7.0 | 0.00 | 0.00 | 0.00 | 78 | 1008.2 |
| 20260507204615 | 66 | 176 | 2.6 | 7.0 | 0.00 | 0.00 | 0.00 | 77 | 1008.1 |
| 20260507204121 | 66 | 137 | 2.6 | 10.4 | 0.00 | 0.00 | 0.00 | 77 | 1008.2 |
| 20260507203652 | 66 | 122 | 2.6 | 10.4 | 0.00 | 0.00 | 0.00 | 77 | 1008.1 |
| 20260507203113 | 66 | 136 | 1.7 | 8.7 | 0.00 | 0.00 | 0.00 | 78 | 1008.2 |
| 20260507202621 | 66 | 129 | 2.6 | 10.4 | 0.00 | 0.00 | 0.00 | 78 | 1008.0 |
| 20260507202132 | 66 | 198 | 2.6 | 9.6 | 0.00 | 0.00 | 0.00 | 79 | 1008.1 |
| 20260507201614 | 65 | 145 | 3.5 | 7.8 | 0.00 | 0.00 | 0.00 | 80 | 1008.0 |
| 20260507201113 | 65 | 230 | 1.7 | 7.8 | 0.00 | 0.00 | 0.00 | 81 | 1007.9 |
| 20260507200623 | 65 | 159 | 2.6 | 7.8 | 0.00 | 0.00 | 0.00 | 81 | 1007.8 |
| 20260507200128 | 65 | 153 | 2.6 | 7.8 | 0.00 | 0.00 | 0.00 | 82 | 1007.9 |
| 20260507195658 | 65 | 133 | 0.9 | 6.1 | 0.00 | 0.00 | 0.00 | 82 | 1007.8 |
| 20260507195140 | 65 | 123 | 1.7 | 5.2 | 0.00 | 0.00 | 0.00 | 83 | 1008.0 |
| 20260507194628 | 64 | 146 | 0.0 | 2.6 | 0.00 | 0.00 | 0.00 | 83 | 1008.0 |
| 20260507194137 | 64 | 199 | 0.9 | 2.6 | 0.00 | 0.00 | 0.00 | 84 | 1007.9 |
| 20260507193620 | 64 | 155 | 0.0 | 2.6 | 0.00 | 0.00 | 0.00 | 84 | 1008.0 |
| 20260507193128 | 64 | 173 | 0.9 | 1.7 | 0.00 | 0.00 | 0.00 | 85 | 1007.9 |
| 20260507192632 | 64 | 171 | 0.0 | 1.7 | 0.00 | 0.00 | 0.00 | 85 | 1007.9 |
| 20260507192114 | 64 | 166 | 0.9 | 1.7 | 0.00 | 0.00 | 0.00 | 86 | 1007.9 |
| 20260507191625 | 64 | 170 | 0.0 | 1.7 | 0.00 | 0.00 | 0.00 | 87 | 1007.9 |
| 20260507191136 | 63 | 171 | 0.0 | 1.7 | 0.00 | 0.00 | 0.00 | 87 | 1008.0 |
| 20260507190620 | 63 | 158 | 0.0 | 1.7 | 0.00 | 0.00 | 0.00 | 88 | 1008.0 |
| 20260507190128 | 63 | 165 | 0.0 | 1.7 | 0.00 | 0.00 | 0.00 | 88 | 1008.1 |
| 20260507185633 | 63 | 165 | 0.9 | 1.7 | 0.00 | 0.00 | 0.00 | 88 | 1008.0 |
| 20260507185121 | 62 | 148 | 0.9 | 1.7 | 0.00 | 0.00 | 0.00 | 88 | 1007.7 |
| 20260507184612 | 62 | 165 | 0.0 | 0.0 | 0.00 | 0.00 | 0.00 | 88 | 1007.5 |
| 20260507184111 | 62 | 165 | 0.0 | 0.0 | 0.00 | 0.00 | 0.00 | 88 | 1007.7 |
| 20260507183626 | 62 | 165 | 0.0 | 0.0 | 0.00 | 0.00 | 0.00 | 88 | 1007.6 |
| 20260507183157 | 62 | 165 | 0.0 | 0.0 | 0.00 | 0.00 | 0.00 | 88 | 1007.6 |
| 20260507182622 | 62 | 165 | 0.0 | 0.0 | 0.00 | 0.00 | 0.00 | 88 | 1007.7 |
| 20260507182135 | 62 | 165 | 0.0 | 0.0 | 0.00 | 0.00 | 0.00 | 88 | 1007.7 |
| 20260507181622 | 62 | 165 | 0.0 | 0.0 | 0.00 | 0.00 | 0.00 | 87 | 1007.7 |
| 20260507181134 | 62 | 165 | 0.0 | 0.0 | 0.00 | 0.00 | 0.00 | 87 | 1007.6 |
| 20260507180639 | 62 | 165 | 0.0 | 0.0 | 0.00 | 0.00 | 0.00 | 87 | 1007.6 |
| 20260507180126 | 62 | 165 | 0.0 | 0.0 | 0.00 | 0.00 | 0.00 | 87 | 1007.6 |
| 20260507175637 | 62 | 165 | 0.0 | 0.0 | 0.00 | 0.00 | 0.00 | 87 | 1007.6 |
| 20260507175120 | 63 | 165 | 0.0 | 0.0 | 0.00 | 0.00 | 0.00 | 87 | 1007.7 |
| 20260507174653 | 63 | 165 | 0.0 | 0.0 | 0.00 | 0.00 | 0.00 | 87 | 1007.8 |
| 20260507174117 | 63 | 167 | 0.0 | 0.0 | 0.00 | 0.00 | 0.00 | 87 | 1007.7 |
| 20260507173619 | 63 | 167 | 0.0 | 0.0 | 0.00 | 0.00 | 0.00 | 87 | 1008.1 |
| 20260507173132 | 63 | 167 | 0.0 | 0.0 | 0.00 | 0.00 | 0.00 | 87 | 1008.0 |
| 20260507172624 | 63 | 167 | 0.0 | 0.0 | 0.00 | 0.00 | 0.00 | 87 | 1008.0 |
| 20260507172120 | 63 | 167 | 0.0 | 0.0 | 0.00 | 0.00 | 0.00 | 87 | 1008.0 |
| 20260507171624 | 63 | 167 | 0.0 | 0.0 | 0.00 | 0.00 | 0.00 | 87 | 1008.0 |
| 20260507171135 | 63 | 167 | 0.0 | 0.0 | 0.00 | 0.00 | 0.00 | 87 | 1008.1 |
| 20260507170620 | 63 | 167 | 0.0 | 0.0 | 0.00 | 0.00 | 0.00 | 86 | 1008.2 |
| 20260507170150 | 63 | 167 | 0.0 | 0.0 | 0.00 | 0.00 | 0.00 | 86 | 1008.5 |
| 20260507165613 | 63 | 167 | 0.0 | 0.0 | 0.00 | 0.00 | 0.00 | 86 | 1008.4 |
| 20260507165115 | 63 | 167 | 0.0 | 0.0 | 0.00 | 0.00 | 0.00 | 86 | 1008.5 |
| 20260507164645 | 63 | 167 | 0.0 | 0.0 | 0.00 | 0.00 | 0.00 | 86 | 1008.6 |
| 20260507164157 | 63 | 167 | 0.0 | 0.0 | 0.00 | 0.00 | 0.00 | 86 | 1008.6 |
| 20260507163640 | 63 | 167 | 0.0 | 0.0 | 0.00 | 0.00 | 0.00 | 86 | 1008.5 |
| 20260507163131 | 63 | 167 | 0.0 | 0.0 | 0.00 | 0.00 | 0.00 | 86 | 1008.6 |
| 20260507162617 | 63 | 167 | 0.0 | 0.0 | 0.00 | 0.00 | 0.00 | 86 | 1008.7 |
| 20260507162129 | 63 | 167 | 0.0 | 0.0 | 0.00 | 0.00 | 0.00 | 86 | 1008.8 |
| 20260507161638 | 63 | 167 | 0.0 | 0.0 | 0.00 | 0.00 | 0.00 | 85 | 1008.9 |
| 20260507161120 | 63 | 167 | 0.0 | 0.0 | 0.00 | 0.00 | 0.00 | 85 | 1008.8 |
| 20260507160631 | 63 | 167 | 0.0 | 0.0 | 0.00 | 0.00 | 0.00 | 85 | 1008.7 |
| 20260507160115 | 63 | 167 | 0.0 | 0.0 | 0.00 | 0.00 | 0.00 | 85 | 1008.7 |
| 20260507155626 | 63 | 167 | 0.0 | 0.0 | 0.00 | 0.00 | 0.00 | 85 | 1008.8 |
| 20260507155137 | 63 | 167 | 0.0 | 0.0 | 0.00 | 0.00 | 0.00 | 85 | 1009.0 |
| 20260507154643 | 63 | 167 | 0.0 | 0.0 | 0.00 | 0.00 | 0.00 | 85 | 1008.9 |
| 20260507154134 | 63 | 166 | 0.0 | 0.0 | 0.00 | 0.00 | 0.00 | 85 | 1009.0 |
| 20260507153619 | 63 | 167 | 0.0 | 0.0 | 0.00 | 0.00 | 0.00 | 84 | 1009.1 |
| 20260507152620 | 63 | 167 | 0.0 | 0.0 | 0.00 | 0.00 | 0.00 | 84 | 1009.3 |
| 20260507152153 | 63 | 167 | 0.0 | 0.0 | 0.00 | 0.00 | 0.00 | 84 | 1009.4 |
| 20260507151635 | 64 | 167 | 0.0 | 0.0 | 0.00 | 0.00 | 0.00 | 84 | 1009.4 |
| 20260507151126 | 64 | 167 | 0.0 | 0.0 | 0.00 | 0.00 | 0.00 | 84 | 1009.4 |
| 20260507150613 | 64 | 167 | 0.0 | 0.0 | 0.00 | 0.00 | 0.00 | 83 | 1009.5 |
| 20260507150125 | 64 | 167 | 0.0 | 0.0 | 0.00 | 0.00 | 0.00 | 83 | 1009.5 |
| 20260507145611 | 64 | 167 | 0.0 | 0.0 | 0.00 | 0.00 | 0.00 | 83 | 1009.4 |
| 20260507145135 | 64 | 167 | 0.0 | 0.0 | 0.00 | 0.00 | 0.00 | 83 | 1009.5 |
| 20260507144644 | 64 | 167 | 0.0 | 0.0 | 0.00 | 0.00 | 0.00 | 83 | 1009.5 |
| 20260507144156 | 64 | 166 | 0.0 | 0.0 | 0.00 | 0.00 | 0.00 | 83 | 1009.4 |
| 20260507143622 | 64 | 167 | 0.0 | 0.0 | 0.00 | 0.00 | 0.00 | 83 | 1009.3 |
| 20260507143132 | 64 | 167 | 0.0 | 0.0 | 0.00 | 0.00 | 0.00 | 83 | 1009.3 |
| 20260507142616 | 64 | 167 | 0.0 | 0.0 | 0.00 | 0.00 | 0.00 | 83 | 1009.4 |
| 20260507142128 | 64 | 167 | 0.0 | 0.0 | 0.00 | 0.00 | 0.00 | 83 | 1009.7 |
| 20260507141611 | 64 | 167 | 0.0 | 0.0 | 0.00 | 0.00 | 0.00 | 83 | 1009.7 |
| 20260507141144 | 64 | 167 | 0.0 | 0.0 | 0.00 | 0.00 | 0.00 | 83 | 1009.6 |
| 20260507140614 | 64 | 167 | 0.0 | 0.0 | 0.00 | 0.00 | 0.00 | 82 | 1009.6 |
| 20260507140121 | 64 | 167 | 0.0 | 0.0 | 0.00 | 0.00 | 0.00 | 82 | 1009.6 |
| 20260507135656 | 64 | 167 | 0.0 | 0.0 | 0.00 | 0.00 | 0.00 | 82 | 1009.6 |
| 20260507135143 | 64 | 167 | 0.0 | 0.0 | 0.00 | 0.00 | 0.00 | 82 | 1009.6 |
| 20260507134633 | 64 | 167 | 0.0 | 0.0 | 0.00 | 0.00 | 0.00 | 82 | 1009.5 |
| 20260507134117 | 64 | 167 | 0.0 | 0.0 | 0.00 | 0.00 | 0.00 | 82 | 1009.5 |
| 20260507133630 | 64 | 167 | 0.0 | 0.0 | 0.00 | 0.00 | 0.00 | 82 | 1009.6 |
| 20260507133113 | 64 | 166 | 0.0 | 0.0 | 0.00 | 0.00 | 0.00 | 82 | 1009.5 |
| 20260507132616 | 64 | 167 | 0.0 | 0.0 | 0.00 | 0.00 | 0.00 | 82 | 1009.3 |
| 20260507132147 | 64 | 179 | 0.0 | 0.0 | 0.00 | 0.00 | 0.00 | 82 | 1009.2 |
| 20260507131612 | 64 | 179 | 0.0 | 0.0 | 0.00 | 0.00 | 0.00 | 82 | 1009.3 |
| 20260507131123 | 64 | 179 | 0.0 | 0.0 | 0.00 | 0.00 | 0.00 | 82 | 1009.3 |
| 20260507130636 | 64 | 179 | 0.0 | 0.0 | 0.00 | 0.00 | 0.00 | 82 | 1009.3 |
| 20260507130120 | 64 | 179 | 0.0 | 0.0 | 0.00 | 0.00 | 0.00 | 81 | 1009.5 |
| 20260507125634 | 64 | 179 | 0.0 | 0.0 | 0.00 | 0.00 | 0.00 | 81 | 1009.6 |
| 20260507125143 | 64 | 179 | 0.0 | 0.0 | 0.00 | 0.00 | 0.00 | 81 | 1009.6 |
| 20260507124635 | 64 | 179 | 0.0 | 0.0 | 0.00 | 0.00 | 0.00 | 81 | 1009.7 |
| 20260507124119 | 64 | 179 | 0.0 | 0.0 | 0.00 | 0.00 | 0.00 | 81 | 1009.7 |
| 20260507123654 | 64 | 179 | 0.0 | 0.0 | 0.00 | 0.00 | 0.00 | 81 | 1009.7 |
| 20260507123137 | 64 | 179 | 0.0 | 0.0 | 0.00 | 0.00 | 0.00 | 82 | 1009.7 |
| 20260507122627 | 64 | 179 | 0.0 | 0.0 | 0.00 | 0.00 | 0.00 | 81 | 1009.8 |
| 20260507122111 | 64 | 179 | 0.0 | 0.0 | 0.00 | 0.00 | 0.00 | 81 | 1009.6 |
| 20260507121625 | 64 | 179 | 0.0 | 0.0 | 0.00 | 0.00 | 0.00 | 80 | 1009.7 |
| 20260507121137 | 65 | 179 | 0.0 | 0.0 | 0.00 | 0.00 | 0.00 | 80 | 1009.5 |
| 20260507120620 | 65 | 179 | 0.0 | 0.0 | 0.00 | 0.00 | 0.00 | 80 | 1009.4 |
| 20260507115615 | 65 | 181 | 0.0 | 0.0 | 0.00 | 0.00 | 0.00 | 80 | 1009.5 |
| 20260507115125 | 66 | 181 | 0.0 | 1.7 | 0.00 | 0.00 | 0.00 | 80 | 1009.4 |
| 20260507114656 | 66 | 181 | 0.0 | 1.7 | 0.00 | 0.00 | 0.00 | 80 | 1009.5 |
| 20260507114118 | 66 | 182 | 0.9 | 1.7 | 0.00 | 0.00 | 0.00 | 80 | 1009.4 |
| 20260507113611 | 66 | 181 | 0.0 | 0.0 | 0.00 | 0.00 | 0.00 | 79 | 1009.4 |
| 20260507113124 | 66 | 181 | 0.0 | 0.0 | 0.00 | 0.00 | 0.00 | 79 | 1009.4 |
| 20260507112635 | 66 | 181 | 0.0 | 0.0 | 0.00 | 0.00 | 0.00 | 79 | 1009.2 |
| 20260507112120 | 66 | 182 | 0.0 | 0.0 | 0.00 | 0.00 | 0.00 | 79 | 1009.2 |
| 20260507111612 | 66 | 182 | 0.0 | 0.0 | 0.00 | 0.00 | 0.00 | 78 | 1009.2 |
| 20260507111120 | 66 | 184 | 0.0 | 0.0 | 0.00 | 0.00 | 0.00 | 78 | 1009.2 |
| 20260507110634 | 66 | 184 | 0.0 | 0.0 | 0.00 | 0.00 | 0.00 | 78 | 1009.2 |
| 20260507110119 | 67 | 184 | 0.0 | 0.0 | 0.00 | 0.00 | 0.00 | 78 | 1009.2 |
| 20260507105630 | 67 | 184 | 0.0 | 0.0 | 0.00 | 0.00 | 0.00 | 78 | 1009.1 |
| 20260507105113 | 67 | 184 | 0.0 | 0.0 | 0.00 | 0.00 | 0.00 | 78 | 1009.1 |
| 20260507104624 | 67 | 185 | 0.0 | 0.0 | 0.00 | 0.00 | 0.00 | 78 | 1009.1 |
| 20260507104136 | 67 | 185 | 0.0 | 0.9 | 0.00 | 0.00 | 0.00 | 78 | 1009.2 |
| 20260507103621 | 67 | 184 | 0.0 | 0.9 | 0.00 | 0.00 | 0.00 | 78 | 1009.2 |
| 20260507103127 | 67 | 185 | 0.0 | 1.7 | 0.00 | 0.00 | 0.00 | 78 | 1009.2 |
| 20260507102651 | 67 | 185 | 0.9 | 1.7 | 0.00 | 0.00 | 0.00 | 77 | 1009.1 |
| 20260507102132 | 67 | 185 | 0.0 | 2.6 | 0.00 | 0.00 | 0.00 | 77 | 1009.0 |
| 20260507101620 | 67 | 184 | 0.9 | 2.6 | 0.00 | 0.00 | 0.00 | 76 | 1008.9 |
| 20260507101130 | 68 | 174 | 0.9 | 1.7 | 0.00 | 0.00 | 0.00 | 76 | 1008.9 |
| 20260507100610 | 68 | 174 | 0.9 | 1.7 | 0.00 | 0.00 | 0.00 | 75 | 1008.9 |
| 20260507100119 | 68 | 174 | 0.9 | 2.6 | 0.00 | 0.00 | 0.00 | 75 | 1008.9 |
| 20260507095625 | 69 | 186 | 0.9 | 2.6 | 0.00 | 0.00 | 0.00 | 74 | 1008.8 |
| 20260507095134 | 69 | 181 | 0.9 | 1.7 | 0.00 | 0.00 | 0.00 | 73 | 1008.8 |
| 20260507094616 | 69 | 167 | 0.0 | 0.9 | 0.00 | 0.00 | 0.00 | 72 | 1008.8 |
| 20260507094126 | 70 | 167 | 0.9 | 0.9 | 0.00 | 0.00 | 0.00 | 71 | 1008.9 |
| 20260507093635 | 70 | 167 | 0.9 | 1.7 | 0.00 | 0.00 | 0.00 | 70 | 1008.8 |
| 20260507093117 | 71 | 91 | 0.9 | 2.6 | 0.00 | 0.00 | 0.00 | 70 | 1008.7 |
| 20260507092627 | 71 | 46 | 1.7 | 2.6 | 0.00 | 0.00 | 0.00 | 69 | 1008.7 |
| 20260507092137 | 71 | 86 | 0.9 | 2.6 | 0.00 | 0.00 | 0.00 | 68 | 1008.7 |
| 20260507091615 | 71 | 77 | 1.7 | 2.6 | 0.00 | 0.00 | 0.00 | 68 | 1008.8 |
| 20260507091125 | 72 | 72 | 1.7 | 2.6 | 0.00 | 0.00 | 0.00 | 67 | 1008.7 |
| 20260507090635 | 72 | 90 | 0.9 | 2.6 | 0.00 | 0.00 | 0.00 | 66 | 1008.7 |
| 20260507090117 | 72 | 83 | 1.7 | 3.5 | 0.00 | 0.00 | 0.00 | 65 | 1008.8 |
| 20260507085626 | 73 | 68 | 1.7 | 3.5 | 0.00 | 0.00 | 0.00 | 64 | 1008.9 |
| 20260507085135 | 73 | 71 | 1.7 | 3.5 | 0.00 | 0.00 | 0.00 | 65 | 1008.7 |
| 20260507084616 | 73 | 84 | 0.9 | 3.5 | 0.00 | 0.00 | 0.00 | 65 | 1008.8 |
| 20260507084125 | 73 | 93 | 1.7 | 3.5 | 0.00 | 0.00 | 0.00 | 64 | 1008.8 |
| 20260507083610 | 73 | 92 | 1.7 | 2.6 | 0.00 | 0.00 | 0.00 | 64 | 1008.8 |
| 20260507083139 | 73 | 93 | 0.9 | 2.6 | 0.00 | 0.00 | 0.00 | 65 | 1008.8 |
| 20260507082627 | 72 | 100 | 0.9 | 3.5 | 0.00 | 0.00 | 0.00 | 66 | 1008.9 |
| 20260507082137 | 72 | 101 | 1.7 | 3.5 | 0.00 | 0.00 | 0.00 | 66 | 1008.8 |
| 20260507081619 | 72 | 86 | 1.7 | 3.5 | 0.00 | 0.00 | 0.00 | 66 | 1008.8 |
| 20260507081129 | 72 | 68 | 1.7 | 4.3 | 0.00 | 0.00 | 0.00 | 67 | 1008.9 |
| 20260507080637 | 72 | 106 | 2.6 | 4.3 | 0.00 | 0.00 | 0.00 | 67 | 1008.8 |
| 20260507080136 | 72 | 55 | 2.6 | 4.3 | 0.00 | 0.00 | 0.00 | 66 | 1008.9 |
| 20260507075621 | 72 | 68 | 1.7 | 4.3 | 0.00 | 0.00 | 0.00 | 66 | 1008.9 |
| 20260507075132 | 72 | 67 | 2.6 | 4.3 | 0.00 | 0.00 | 0.00 | 66 | 1008.9 |
| 20260507074614 | 72 | 86 | 2.6 | 4.3 | 0.00 | 0.00 | 0.00 | 65 | 1008.9 |
| 20260507074124 | 72 | 76 | 2.6 | 4.3 | 0.00 | 0.00 | 0.00 | 65 | 1009.1 |
| 20260507073634 | 72 | 71 | 1.7 | 4.3 | 0.00 | 0.00 | 0.00 | 66 | 1009.0 |
| 20260507073114 | 72 | 131 | 1.7 | 4.3 | 0.00 | 0.00 | 0.00 | 67 | 1009.1 |
| 20260507072613 | 72 | 42 | 2.6 | 4.3 | 0.00 | 0.00 | 0.00 | 67 | 1009.2 |
| 20260507072117 | 72 | 76 | 1.7 | 3.5 | 0.00 | 0.00 | 0.00 | 67 | 1009.2 |